Year,Month,Day,Hour,Minute,Value (Times are PST for temperature in C)
2016,06,24,00,00,13.90
2016,06,24,00,01,13.90
2016,06,24,00,02,13.90
2016,06,24,00,03,13.90
2016,06,24,00,04,13.90
2016,06,24,00,05,13.90
2016,06,24,00,06,13.80
2016,06,24,00,07,13.80
2016,06,24,00,08,13.80
2016,06,24,00,09,13.70
2016,06,24,00,10,13.70
2016,06,24,00,11,13.70
2016,06,24,00,12,13.70
2016,06,24,00,13,13.70
2016,06,24,00,14,13.60
2016,06,24,00,15,13.60
2016,06,24,00,16,13.50
2016,06,24,00,17,13.50
2016,06,24,00,18,13.40
2016,06,24,00,19,13.30
2016,06,24,00,20,13.30
2016,06,24,00,21,13.30
2016,06,24,00,22,13.20
2016,06,24,00,23,13.10
2016,06,24,00,24,13.10
2016,06,24,00,25,13.00
2016,06,24,00,26,13.00
2016,06,24,00,27,12.90
2016,06,24,00,28,12.80
2016,06,24,00,29,12.80
2016,06,24,00,30,12.80
2016,06,24,00,31,12.70
2016,06,24,00,32,12.70
2016,06,24,00,33,12.70
2016,06,24,00,34,12.70
2016,06,24,00,35,12.70
2016,06,24,00,36,12.60
2016,06,24,00,37,12.60
2016,06,24,00,38,12.60
2016,06,24,00,39,12.60
2016,06,24,00,40,12.50
2016,06,24,00,41,12.50
2016,06,24,00,42,12.50
2016,06,24,00,43,12.50
2016,06,24,00,44,12.40
2016,06,24,00,45,12.40
2016,06,24,00,46,12.50
2016,06,24,00,47,12.50
2016,06,24,00,48,12.50
2016,06,24,00,49,12.50
2016,06,24,00,50,12.50
2016,06,24,00,51,12.40
2016,06,24,00,52,12.40
2016,06,24,00,53,12.40
2016,06,24,00,54,12.40
2016,06,24,00,55,12.40
2016,06,24,00,56,12.40
2016,06,24,00,57,12.40
2016,06,24,00,58,12.30
2016,06,24,00,59,12.30
2016,06,24,01,00,12.30
2016,06,24,01,01,12.30
2016,06,24,01,02,12.30
2016,06,24,01,03,12.30
2016,06,24,01,04,12.30
2016,06,24,01,05,12.30
2016,06,24,01,06,12.30
2016,06,24,01,07,12.30
2016,06,24,01,08,12.30
2016,06,24,01,09,12.40
2016,06,24,01,10,12.40
2016,06,24,01,11,12.40
2016,06,24,01,12,12.50
2016,06,24,01,13,12.50
2016,06,24,01,14,12.60
2016,06,24,01,15,12.60
2016,06,24,01,16,12.60
2016,06,24,01,17,12.60
2016,06,24,01,18,12.70
2016,06,24,01,19,12.70
2016,06,24,01,20,12.60
2016,06,24,01,21,12.60
2016,06,24,01,22,12.60
2016,06,24,01,23,12.60
2016,06,24,01,24,12.60
2016,06,24,01,25,12.60
2016,06,24,01,26,12.60
2016,06,24,01,27,12.50
2016,06,24,01,28,12.50
2016,06,24,01,29,12.60
2016,06,24,01,30,12.50
2016,06,24,01,31,12.50
2016,06,24,01,32,12.50
2016,06,24,01,33,12.50
2016,06,24,01,34,12.50
2016,06,24,01,35,12.50
2016,06,24,01,36,12.40
2016,06,24,01,37,12.40
2016,06,24,01,38,12.40
2016,06,24,01,39,12.40
2016,06,24,01,40,12.40
2016,06,24,01,41,12.40
2016,06,24,01,42,12.40
2016,06,24,01,43,12.40
2016,06,24,01,44,12.40
2016,06,24,01,45,12.40
2016,06,24,01,46,12.40
2016,06,24,01,47,12.40
2016,06,24,01,48,12.30
2016,06,24,01,49,12.30
2016,06,24,01,50,12.30
2016,06,24,01,51,12.30
2016,06,24,01,52,12.30
2016,06,24,01,53,12.30
2016,06,24,01,54,12.30
2016,06,24,01,55,12.30
2016,06,24,01,56,12.30
2016,06,24,01,57,12.30
2016,06,24,01,58,12.20
2016,06,24,01,59,12.20
2016,06,24,02,00,12.20
2016,06,24,02,01,12.10
2016,06,24,02,02,12.10
2016,06,24,02,03,12.10
2016,06,24,02,04,12.10
2016,06,24,02,05,12.00
2016,06,24,02,06,12.00
2016,06,24,02,07,12.00
2016,06,24,02,08,11.90
2016,06,24,02,09,11.90
2016,06,24,02,10,11.90
2016,06,24,02,11,11.90
2016,06,24,02,12,11.80
2016,06,24,02,13,11.80
2016,06,24,02,14,11.80
2016,06,24,02,15,11.80
2016,06,24,02,16,11.80
2016,06,24,02,17,11.80
2016,06,24,02,18,11.80
2016,06,24,02,19,11.80
2016,06,24,02,20,11.70
2016,06,24,02,21,11.70
2016,06,24,02,22,11.70
2016,06,24,02,23,11.70
2016,06,24,02,24,11.70
2016,06,24,02,25,11.70
2016,06,24,02,26,11.70
2016,06,24,02,27,11.70
2016,06,24,02,28,11.70
2016,06,24,02,29,11.70
2016,06,24,02,30,11.70
2016,06,24,02,31,11.70
2016,06,24,02,32,11.70
2016,06,24,02,33,11.70
2016,06,24,02,34,11.70
2016,06,24,02,35,11.70
2016,06,24,02,36,11.70
2016,06,24,02,37,11.70
2016,06,24,02,38,11.70
2016,06,24,02,39,11.70
2016,06,24,02,40,11.70
2016,06,24,02,41,11.70
2016,06,24,02,42,11.70
2016,06,24,02,43,11.70
2016,06,24,02,44,11.70
2016,06,24,02,45,11.70
2016,06,24,02,46,11.70
2016,06,24,02,47,11.70
2016,06,24,02,48,11.70
2016,06,24,02,49,11.70
2016,06,24,02,50,11.70
2016,06,24,02,51,11.70
2016,06,24,02,52,11.60
2016,06,24,02,53,11.60
2016,06,24,02,54,11.60
2016,06,24,02,55,11.60
2016,06,24,02,56,11.60
2016,06,24,02,57,11.60
2016,06,24,02,58,11.60
2016,06,24,02,59,11.60
2016,06,24,03,00,11.60
2016,06,24,03,01,11.60
2016,06,24,03,02,11.50
2016,06,24,03,03,11.50
2016,06,24,03,04,11.50
2016,06,24,03,05,11.40
2016,06,24,03,06,11.40
2016,06,24,03,07,11.30
2016,06,24,03,08,11.30
2016,06,24,03,09,11.30
2016,06,24,03,10,11.30
2016,06,24,03,11,11.30
2016,06,24,03,12,11.20
2016,06,24,03,13,11.20
2016,06,24,03,14,11.20
2016,06,24,03,15,11.20
2016,06,24,03,16,11.20
2016,06,24,03,17,11.20
2016,06,24,03,18,11.10
2016,06,24,03,19,11.10
2016,06,24,03,20,11.10
2016,06,24,03,21,11.10
2016,06,24,03,22,11.10
2016,06,24,03,23,11.10
2016,06,24,03,24,11.10
2016,06,24,03,25,11.10
2016,06,24,03,26,11.10
2016,06,24,03,27,11.10
2016,06,24,03,28,11.00
2016,06,24,03,29,11.00
2016,06,24,03,30,11.00
2016,06,24,03,31,11.00
2016,06,24,03,32,11.00
2016,06,24,03,33,10.90
2016,06,24,03,34,10.90
2016,06,24,03,35,10.90
2016,06,24,03,36,10.90
2016,06,24,03,37,10.90
2016,06,24,03,38,10.90
2016,06,24,03,39,10.80
2016,06,24,03,40,10.80
2016,06,24,03,41,10.80
2016,06,24,03,42,10.80
2016,06,24,03,43,10.80
2016,06,24,03,44,10.70
2016,06,24,03,45,10.70
2016,06,24,03,46,10.70
2016,06,24,03,47,10.70
2016,06,24,03,48,10.70
2016,06,24,03,49,10.60
2016,06,24,03,50,10.60
2016,06,24,03,51,10.60
2016,06,24,03,52,10.60
2016,06,24,03,53,10.60
2016,06,24,03,54,10.50
2016,06,24,03,55,10.50
2016,06,24,03,56,10.50
2016,06,24,03,57,10.50
2016,06,24,03,58,10.50
2016,06,24,03,59,10.50
2016,06,24,04,00,10.50
2016,06,24,04,01,10.40
2016,06,24,04,02,10.40
2016,06,24,04,03,10.40
2016,06,24,04,04,10.40
2016,06,24,04,05,10.40
2016,06,24,04,06,10.40
2016,06,24,04,07,10.40
2016,06,24,04,08,10.30
2016,06,24,04,09,10.30
2016,06,24,04,10,10.30
2016,06,24,04,11,10.30
2016,06,24,04,12,10.30
2016,06,24,04,13,10.30
2016,06,24,04,14,10.30
2016,06,24,04,15,10.30
2016,06,24,04,16,10.30
2016,06,24,04,17,10.30
2016,06,24,04,18,10.30
2016,06,24,04,19,10.30
2016,06,24,04,20,10.30
2016,06,24,04,21,10.30
2016,06,24,04,22,10.30
2016,06,24,04,23,10.20
2016,06,24,04,24,10.20
2016,06,24,04,25,10.20
2016,06,24,04,26,10.20
2016,06,24,04,27,10.20
2016,06,24,04,28,10.20
2016,06,24,04,29,10.20
2016,06,24,04,30,10.20
2016,06,24,04,31,10.20
2016,06,24,04,32,10.20
2016,06,24,04,33,10.20
2016,06,24,04,34,10.20
2016,06,24,04,35,10.20
2016,06,24,04,36,10.20
2016,06,24,04,37,10.20
2016,06,24,04,38,10.20
2016,06,24,04,39,10.30
2016,06,24,04,40,10.30
2016,06,24,04,41,10.30
2016,06,24,04,42,10.30
2016,06,24,04,43,10.30
2016,06,24,04,44,10.30
2016,06,24,04,45,10.30
2016,06,24,04,46,10.30
2016,06,24,04,47,10.30
2016,06,24,04,48,10.30
2016,06,24,04,49,10.30
2016,06,24,04,50,10.30
2016,06,24,04,51,10.30
2016,06,24,04,52,10.30
2016,06,24,04,53,10.30
2016,06,24,04,54,10.40
2016,06,24,04,55,10.40
2016,06,24,04,56,10.40
2016,06,24,04,57,10.40
2016,06,24,04,58,10.40
2016,06,24,04,59,10.40
2016,06,24,05,00,10.40
2016,06,24,05,01,10.50
2016,06,24,05,02,10.50
2016,06,24,05,03,10.50
2016,06,24,05,04,10.60
2016,06,24,05,05,10.60
2016,06,24,05,06,10.60
2016,06,24,05,07,10.60
2016,06,24,05,08,10.60
2016,06,24,05,09,10.60
2016,06,24,05,10,10.60
2016,06,24,05,11,10.60
2016,06,24,05,12,10.60
2016,06,24,05,13,10.60
2016,06,24,05,14,10.70
2016,06,24,05,15,10.70
2016,06,24,05,16,10.70
2016,06,24,05,17,10.70
2016,06,24,05,18,10.70
2016,06,24,05,19,10.70
2016,06,24,05,20,10.70
2016,06,24,05,21,10.80
2016,06,24,05,22,10.80
2016,06,24,05,23,10.80
2016,06,24,05,24,10.80
2016,06,24,05,25,10.80
2016,06,24,05,26,10.80
2016,06,24,05,27,10.80
2016,06,24,05,28,10.80
2016,06,24,05,29,10.80
2016,06,24,05,30,10.80
2016,06,24,05,31,10.80
2016,06,24,05,32,10.80
2016,06,24,05,33,10.80
2016,06,24,05,34,10.80
2016,06,24,05,35,10.80
2016,06,24,05,36,10.80
2016,06,24,05,37,10.80
2016,06,24,05,38,10.80
2016,06,24,05,39,10.80
2016,06,24,05,40,10.80
2016,06,24,05,41,10.80
2016,06,24,05,42,10.80
2016,06,24,05,43,10.80
2016,06,24,05,44,10.80
2016,06,24,05,45,10.80
2016,06,24,05,46,10.80
2016,06,24,05,47,10.80
2016,06,24,05,48,10.80
2016,06,24,05,49,10.80
2016,06,24,05,50,10.80
2016,06,24,05,51,10.80
2016,06,24,05,52,10.80
2016,06,24,05,53,10.80
2016,06,24,05,54,10.80
2016,06,24,05,55,10.80
2016,06,24,05,56,10.80
2016,06,24,05,57,10.80
2016,06,24,05,58,10.80
2016,06,24,05,59,10.80
2016,06,24,06,00,10.80
2016,06,24,06,01,10.80
2016,06,24,06,02,10.80
2016,06,24,06,03,10.80
2016,06,24,06,04,10.80
2016,06,24,06,05,10.80
2016,06,24,06,06,10.80
2016,06,24,06,07,10.80
2016,06,24,06,08,10.80
2016,06,24,06,09,10.80
2016,06,24,06,10,10.80
2016,06,24,06,11,10.80
2016,06,24,06,12,10.80
2016,06,24,06,13,10.90
2016,06,24,06,14,10.90
2016,06,24,06,15,10.90
2016,06,24,06,16,10.90
2016,06,24,06,17,10.90
2016,06,24,06,18,10.90
2016,06,24,06,19,10.90
2016,06,24,06,20,11.00
2016,06,24,06,21,11.00
2016,06,24,06,22,11.00
2016,06,24,06,23,11.00
2016,06,24,06,24,10.90
2016,06,24,06,25,11.00
2016,06,24,06,26,11.00
2016,06,24,06,27,11.00
2016,06,24,06,28,11.00
2016,06,24,06,29,11.00
2016,06,24,06,30,11.00
2016,06,24,06,31,11.10
2016,06,24,06,32,11.10
2016,06,24,06,33,11.10
2016,06,24,06,34,11.10
2016,06,24,06,35,11.10
2016,06,24,06,36,11.10
2016,06,24,06,37,11.10
2016,06,24,06,38,11.20
2016,06,24,06,39,11.20
2016,06,24,06,40,11.20
2016,06,24,06,41,11.20
2016,06,24,06,42,11.20
2016,06,24,06,43,11.20
2016,06,24,06,44,11.30
2016,06,24,06,45,11.30
2016,06,24,06,46,11.30
2016,06,24,06,47,11.30
2016,06,24,06,48,11.30
2016,06,24,06,49,11.40
2016,06,24,06,50,11.40
2016,06,24,06,51,11.40
2016,06,24,06,52,11.50
2016,06,24,06,53,11.50
2016,06,24,06,54,11.60
2016,06,24,06,55,11.60
2016,06,24,06,56,11.70
2016,06,24,06,57,11.70
2016,06,24,06,58,11.80
2016,06,24,06,59,11.80
2016,06,24,07,00,11.90
2016,06,24,07,01,11.90
2016,06,24,07,02,12.00
2016,06,24,07,03,12.10
2016,06,24,07,04,12.10
2016,06,24,07,05,12.20
2016,06,24,07,06,12.20
2016,06,24,07,07,12.30
2016,06,24,07,08,12.30
2016,06,24,07,09,12.30
2016,06,24,07,10,12.40
2016,06,24,07,11,12.40
2016,06,24,07,12,12.50
2016,06,24,07,13,12.50
2016,06,24,07,14,12.60
2016,06,24,07,15,12.60
2016,06,24,07,16,12.70
2016,06,24,07,17,12.70
2016,06,24,07,18,12.70
2016,06,24,07,19,12.80
2016,06,24,07,20,12.80
2016,06,24,07,21,12.90
2016,06,24,07,22,13.00
2016,06,24,07,23,13.00
2016,06,24,07,24,13.10
2016,06,24,07,25,13.10
2016,06,24,07,26,13.10
2016,06,24,07,27,13.20
2016,06,24,07,28,13.20
2016,06,24,07,29,13.30
2016,06,24,07,30,13.30
2016,06,24,07,31,13.30
2016,06,24,07,32,13.40
2016,06,24,07,33,13.50
2016,06,24,07,34,13.50
2016,06,24,07,35,13.60
2016,06,24,07,36,13.70
2016,06,24,07,37,13.70
2016,06,24,07,38,13.70
2016,06,24,07,39,13.80
2016,06,24,07,40,13.80
2016,06,24,07,41,13.80
2016,06,24,07,42,13.80
2016,06,24,07,43,13.90
2016,06,24,07,44,13.90
2016,06,24,07,45,14.00
2016,06,24,07,46,14.00
2016,06,24,07,47,14.10
2016,06,24,07,48,14.10
2016,06,24,07,49,14.20
2016,06,24,07,50,14.20
2016,06,24,07,51,14.30
2016,06,24,07,52,14.30
2016,06,24,07,53,14.40
2016,06,24,07,54,14.40
2016,06,24,07,55,14.50
2016,06,24,07,56,14.50
2016,06,24,07,57,14.50
2016,06,24,07,58,14.60
2016,06,24,07,59,14.60
2016,06,24,08,00,14.60
2016,06,24,08,01,14.60
2016,06,24,08,02,14.60
2016,06,24,08,03,14.60
2016,06,24,08,04,14.60
2016,06,24,08,05,14.70
2016,06,24,08,06,14.70
2016,06,24,08,07,14.70
2016,06,24,08,08,14.70
2016,06,24,08,09,14.70
2016,06,24,08,10,14.70
2016,06,24,08,11,14.60
2016,06,24,08,12,14.60
2016,06,24,08,13,14.60
2016,06,24,08,14,14.60
2016,06,24,08,15,14.60
2016,06,24,08,16,14.60
2016,06,24,08,17,14.60
2016,06,24,08,18,14.60
2016,06,24,08,19,14.60
2016,06,24,08,20,14.60
2016,06,24,08,21,14.60
2016,06,24,08,22,14.60
2016,06,24,08,23,14.60
2016,06,24,08,24,14.60
2016,06,24,08,25,14.60
2016,06,24,08,26,14.60
2016,06,24,08,27,14.60
2016,06,24,08,28,14.60
2016,06,24,08,29,14.60
2016,06,24,08,30,14.60
2016,06,24,08,31,14.60
2016,06,24,08,32,14.60
2016,06,24,08,33,14.60
2016,06,24,08,34,14.60
2016,06,24,08,35,14.60
2016,06,24,08,36,14.70
2016,06,24,08,37,14.70
2016,06,24,08,38,14.70
2016,06,24,08,39,14.70
2016,06,24,08,40,14.70
2016,06,24,08,41,14.70
2016,06,24,08,42,14.70
2016,06,24,08,43,14.80
2016,06,24,08,44,14.80
2016,06,24,08,45,14.80
2016,06,24,08,46,14.90
2016,06,24,08,47,14.90
2016,06,24,08,48,14.90
2016,06,24,08,49,15.00
2016,06,24,08,50,15.00
2016,06,24,08,51,15.10
2016,06,24,08,52,15.10
2016,06,24,08,53,15.10
2016,06,24,08,54,15.10
2016,06,24,08,55,15.10
2016,06,24,08,56,15.10
2016,06,24,08,57,15.20
2016,06,24,08,58,15.20
2016,06,24,08,59,15.20
2016,06,24,09,00,15.20
2016,06,24,09,01,15.30
2016,06,24,09,02,15.30
2016,06,24,09,03,15.30
2016,06,24,09,04,15.40
2016,06,24,09,05,15.40
2016,06,24,09,06,15.40
2016,06,24,09,07,15.40
2016,06,24,09,08,15.40
2016,06,24,09,09,15.40
2016,06,24,09,10,15.40
2016,06,24,09,11,15.40
2016,06,24,09,12,15.50
2016,06,24,09,13,15.50
2016,06,24,09,14,15.50
2016,06,24,09,15,15.60
2016,06,24,09,16,15.60
2016,06,24,09,17,15.60
2016,06,24,09,18,15.70
2016,06,24,09,19,15.70
2016,06,24,09,20,15.70
2016,06,24,09,21,15.80
2016,06,24,09,22,15.80
2016,06,24,09,23,15.80
2016,06,24,09,24,15.80
2016,06,24,09,25,15.80
2016,06,24,09,26,15.80
2016,06,24,09,27,15.80
2016,06,24,09,28,15.80
2016,06,24,09,29,15.80
2016,06,24,09,30,15.80
2016,06,24,09,31,15.80
2016,06,24,09,32,15.80
2016,06,24,09,33,15.80
2016,06,24,09,34,15.80
2016,06,24,09,35,15.80
2016,06,24,09,36,15.70
2016,06,24,09,37,15.70
2016,06,24,09,38,15.70
2016,06,24,09,39,15.70
2016,06,24,09,40,15.70
2016,06,24,09,41,15.70
2016,06,24,09,42,15.70
2016,06,24,09,43,15.80
2016,06,24,09,44,15.70
2016,06,24,09,45,15.80
2016,06,24,09,46,15.80
2016,06,24,09,47,15.80
2016,06,24,09,48,15.80
2016,06,24,09,49,15.80
2016,06,24,09,50,15.90
2016,06,24,09,51,15.90
2016,06,24,09,52,16.00
2016,06,24,09,53,16.10
2016,06,24,09,54,16.10
2016,06,24,09,55,16.10
2016,06,24,09,56,16.10
2016,06,24,09,57,16.10
2016,06,24,09,58,16.10
2016,06,24,09,59,16.10
2016,06,24,10,00,16.10
2016,06,24,10,01,16.00
2016,06,24,10,02,16.00
2016,06,24,10,03,16.00
2016,06,24,10,04,15.90
2016,06,24,10,05,15.90
2016,06,24,10,06,15.90
2016,06,24,10,07,15.90
2016,06,24,10,08,15.90
2016,06,24,10,09,15.90
2016,06,24,10,10,15.90
2016,06,24,10,11,15.90
2016,06,24,10,12,15.80
2016,06,24,10,13,15.70
2016,06,24,10,14,15.60
2016,06,24,10,15,15.50
2016,06,24,10,16,15.50
2016,06,24,10,17,15.50
2016,06,24,10,18,15.50
2016,06,24,10,19,15.50
2016,06,24,10,20,15.40
2016,06,24,10,21,15.40
2016,06,24,10,22,15.40
2016,06,24,10,23,15.40
2016,06,24,10,24,15.40
2016,06,24,10,25,15.50
2016,06,24,10,26,15.60
2016,06,24,10,27,15.60
2016,06,24,10,28,15.70
2016,06,24,10,29,15.70
2016,06,24,10,30,15.80
2016,06,24,10,31,15.80
2016,06,24,10,32,15.80
2016,06,24,10,33,15.90
2016,06,24,10,34,15.90
2016,06,24,10,35,16.00
2016,06,24,10,36,16.00
2016,06,24,10,37,16.10
2016,06,24,10,38,16.10
2016,06,24,10,39,16.10
2016,06,24,10,40,16.20
2016,06,24,10,41,16.10
2016,06,24,10,42,16.10
2016,06,24,10,43,16.10
2016,06,24,10,44,16.10
2016,06,24,10,45,16.10
2016,06,24,10,46,16.10
2016,06,24,10,47,16.20
2016,06,24,10,48,16.20
2016,06,24,10,49,16.20
2016,06,24,10,50,16.30
2016,06,24,10,51,16.30
2016,06,24,10,52,16.40
2016,06,24,10,53,16.50
2016,06,24,10,54,16.60
2016,06,24,10,55,16.70
2016,06,24,10,56,16.80
2016,06,24,10,57,16.90
2016,06,24,10,58,17.00
2016,06,24,10,59,17.00
2016,06,24,11,00,17.10
2016,06,24,11,01,17.10
2016,06,24,11,02,17.10
2016,06,24,11,03,17.10
2016,06,24,11,04,17.10
2016,06,24,11,05,17.10
2016,06,24,11,06,17.10
2016,06,24,11,07,17.10
2016,06,24,11,08,17.20
2016,06,24,11,09,17.20
2016,06,24,11,10,17.30
2016,06,24,11,11,17.30
2016,06,24,11,12,17.30
2016,06,24,11,13,17.40
2016,06,24,11,14,17.50
2016,06,24,11,15,17.50
2016,06,24,11,16,17.60
2016,06,24,11,17,17.60
2016,06,24,11,18,17.60
2016,06,24,11,19,17.60
2016,06,24,11,20,17.70
2016,06,24,11,21,17.70
2016,06,24,11,22,17.70
2016,06,24,11,23,17.80
2016,06,24,11,24,17.80
2016,06,24,11,25,17.90
2016,06,24,11,26,18.00
2016,06,24,11,27,18.00
2016,06,24,11,28,18.10
2016,06,24,11,29,18.10
2016,06,24,11,30,18.20
2016,06,24,11,31,18.20
2016,06,24,11,32,18.20
2016,06,24,11,33,18.30
2016,06,24,11,34,18.30
2016,06,24,11,35,18.30
2016,06,24,11,36,18.30
2016,06,24,11,37,18.30
2016,06,24,11,38,18.40
2016,06,24,11,39,18.40
2016,06,24,11,40,18.50
2016,06,24,11,41,18.50
2016,06,24,11,42,18.60
2016,06,24,11,43,18.60
2016,06,24,11,44,18.60
2016,06,24,11,45,18.60
2016,06,24,11,46,18.60
2016,06,24,11,47,18.60
2016,06,24,11,48,18.60
2016,06,24,11,49,18.70
2016,06,24,11,50,18.70
2016,06,24,11,51,18.80
2016,06,24,11,52,18.80
2016,06,24,11,53,18.80
2016,06,24,11,54,18.70
2016,06,24,11,55,18.70
2016,06,24,11,56,18.70
2016,06,24,11,57,18.70
2016,06,24,11,58,18.70
2016,06,24,11,59,18.70
2016,06,24,12,00,18.70
2016,06,24,12,01,18.70
2016,06,24,12,02,18.70
2016,06,24,12,03,18.70
2016,06,24,12,04,18.60
2016,06,24,12,05,18.60
2016,06,24,12,06,18.60
2016,06,24,12,07,18.60
2016,06,24,12,08,18.60
2016,06,24,12,09,18.60
2016,06,24,12,10,18.60
2016,06,24,12,11,18.60
2016,06,24,12,12,18.60
2016,06,24,12,13,18.60
2016,06,24,12,14,18.50
2016,06,24,12,15,18.60
2016,06,24,12,16,18.60
2016,06,24,12,17,18.60
2016,06,24,12,18,18.60
2016,06,24,12,19,18.60
2016,06,24,12,20,18.60
2016,06,24,12,21,18.60
2016,06,24,12,22,18.50
2016,06,24,12,23,18.40
2016,06,24,12,24,18.40
2016,06,24,12,25,18.40
2016,06,24,12,26,18.40
2016,06,24,12,27,18.40
2016,06,24,12,28,18.40
2016,06,24,12,29,18.40
2016,06,24,12,30,18.40
2016,06,24,12,31,18.30
2016,06,24,12,32,18.30
2016,06,24,12,33,18.30
2016,06,24,12,34,18.30
2016,06,24,12,35,18.30
2016,06,24,12,36,18.30
2016,06,24,12,37,18.30
2016,06,24,12,38,18.30
2016,06,24,12,39,18.40
2016,06,24,12,40,18.40
2016,06,24,12,41,18.40
2016,06,24,12,42,18.50
2016,06,24,12,43,18.60
2016,06,24,12,44,18.60
2016,06,24,12,45,18.70
2016,06,24,12,46,18.70
2016,06,24,12,47,18.70
2016,06,24,12,48,18.70
2016,06,24,12,49,18.70
2016,06,24,12,50,18.70
2016,06,24,12,51,18.70
2016,06,24,12,52,18.70
2016,06,24,12,53,18.60
2016,06,24,12,54,18.60
2016,06,24,12,55,18.50
2016,06,24,12,56,18.50
2016,06,24,12,57,18.40
2016,06,24,12,58,18.40
2016,06,24,12,59,18.40
2016,06,24,13,00,18.40
2016,06,24,13,01,18.40
2016,06,24,13,02,18.40
2016,06,24,13,03,18.50
2016,06,24,13,04,18.50
2016,06,24,13,05,18.60
2016,06,24,13,06,18.60
2016,06,24,13,07,18.50
2016,06,24,13,08,18.50
2016,06,24,13,09,18.50
2016,06,24,13,10,18.60
2016,06,24,13,11,18.70
2016,06,24,13,12,18.80
2016,06,24,13,13,18.90
2016,06,24,13,14,18.90
2016,06,24,13,15,18.90
2016,06,24,13,16,18.90
2016,06,24,13,17,18.90
2016,06,24,13,18,19.00
2016,06,24,13,19,19.00
2016,06,24,13,20,19.10
2016,06,24,13,21,19.20
2016,06,24,13,22,19.20
2016,06,24,13,23,19.30
2016,06,24,13,24,19.30
2016,06,24,13,25,19.40
2016,06,24,13,26,19.40
2016,06,24,13,27,19.50
2016,06,24,13,28,19.60
2016,06,24,13,29,19.60
2016,06,24,13,30,19.80
2016,06,24,13,31,19.90
2016,06,24,13,32,20.00
2016,06,24,13,33,20.10
2016,06,24,13,34,20.10
2016,06,24,13,35,20.20
2016,06,24,13,36,20.30
2016,06,24,13,37,20.40
2016,06,24,13,38,20.40
2016,06,24,13,39,20.50
2016,06,24,13,40,20.50
2016,06,24,13,41,20.50
2016,06,24,13,42,20.50
2016,06,24,13,43,20.50
2016,06,24,13,44,20.50
2016,06,24,13,45,20.40
2016,06,24,13,46,20.30
2016,06,24,13,47,20.20
2016,06,24,13,48,20.10
2016,06,24,13,49,20.00
2016,06,24,13,50,19.90
2016,06,24,13,51,19.80
2016,06,24,13,52,19.80
2016,06,24,13,53,19.80
2016,06,24,13,54,19.70
2016,06,24,13,55,19.60
2016,06,24,13,56,19.50
2016,06,24,13,57,19.40
2016,06,24,13,58,19.30
2016,06,24,13,59,19.20
2016,06,24,14,00,19.20
2016,06,24,14,01,19.10
2016,06,24,14,02,18.90
2016,06,24,14,03,18.80
2016,06,24,14,04,18.70
2016,06,24,14,05,18.60
2016,06,24,14,06,18.60
2016,06,24,14,07,18.50
2016,06,24,14,08,18.40
2016,06,24,14,09,18.30
2016,06,24,14,10,18.30
2016,06,24,14,11,18.20
2016,06,24,14,12,18.10
2016,06,24,14,13,18.10
2016,06,24,14,14,18.00
2016,06,24,14,15,18.00
2016,06,24,14,16,17.90
2016,06,24,14,17,17.80
2016,06,24,14,18,17.80
2016,06,24,14,19,17.70
2016,06,24,14,20,17.70
2016,06,24,14,21,17.70
2016,06,24,14,22,17.60
2016,06,24,14,23,17.50
2016,06,24,14,24,17.50
2016,06,24,14,25,17.40
2016,06,24,14,26,17.40
2016,06,24,14,27,17.30
2016,06,24,14,28,17.30
2016,06,24,14,29,17.30
2016,06,24,14,30,17.20
2016,06,24,14,31,17.20
2016,06,24,14,32,17.20
2016,06,24,14,33,17.20
2016,06,24,14,34,17.20
2016,06,24,14,35,17.20
2016,06,24,14,36,17.20
2016,06,24,14,37,17.20
2016,06,24,14,38,17.20
2016,06,24,14,39,17.30
2016,06,24,14,40,17.30
2016,06,24,14,41,17.30
2016,06,24,14,42,17.40
2016,06,24,14,43,17.40
2016,06,24,14,44,17.40
2016,06,24,14,45,17.50
2016,06,24,14,46,17.60
2016,06,24,14,47,17.60
2016,06,24,14,48,17.70
2016,06,24,14,49,17.70
2016,06,24,14,50,17.80
2016,06,24,14,51,17.90
2016,06,24,14,52,17.90
2016,06,24,14,53,17.90
2016,06,24,14,54,17.90
2016,06,24,14,55,17.90
2016,06,24,14,56,18.00
2016,06,24,14,57,18.00
2016,06,24,14,58,18.00
2016,06,24,14,59,18.10
2016,06,24,15,00,18.10
2016,06,24,15,01,18.20
2016,06,24,15,02,18.20
2016,06,24,15,03,18.30
2016,06,24,15,04,18.30
2016,06,24,15,05,18.30
2016,06,24,15,06,18.30
2016,06,24,15,07,18.30
2016,06,24,15,08,18.30
2016,06,24,15,09,18.30
2016,06,24,15,10,18.30
2016,06,24,15,11,18.30
2016,06,24,15,12,18.30
2016,06,24,15,13,18.30
2016,06,24,15,14,18.30
2016,06,24,15,15,18.30
2016,06,24,15,16,18.40
2016,06,24,15,17,18.40
2016,06,24,15,18,18.40
2016,06,24,15,19,18.40
2016,06,24,15,20,18.50
2016,06,24,15,21,18.50
2016,06,24,15,22,18.40
2016,06,24,15,23,18.40
2016,06,24,15,24,18.50
2016,06,24,15,25,18.50
2016,06,24,15,26,18.60
2016,06,24,15,27,18.60
2016,06,24,15,28,18.60
2016,06,24,15,29,18.50
2016,06,24,15,30,18.50
2016,06,24,15,31,18.50
2016,06,24,15,32,18.50
2016,06,24,15,33,18.50
2016,06,24,15,34,18.60
2016,06,24,15,35,18.60
2016,06,24,15,36,18.60
2016,06,24,15,37,18.60
2016,06,24,15,38,18.50
2016,06,24,15,39,18.50
2016,06,24,15,40,18.60
2016,06,24,15,41,18.60
2016,06,24,15,42,18.60
2016,06,24,15,43,18.60
2016,06,24,15,44,18.60
2016,06,24,15,45,18.60
2016,06,24,15,46,18.60
2016,06,24,15,47,18.60
2016,06,24,15,48,18.60
2016,06,24,15,49,18.60
2016,06,24,15,50,18.60
2016,06,24,15,51,18.60
2016,06,24,15,52,18.50
2016,06,24,15,53,18.40
2016,06,24,15,54,18.40
2016,06,24,15,55,18.40
2016,06,24,15,56,18.30
2016,06,24,15,57,18.30
2016,06,24,15,58,18.20
2016,06,24,15,59,18.20
2016,06,24,16,00,18.10
2016,06,24,16,01,18.10
2016,06,24,16,02,18.00
2016,06,24,16,03,18.00
2016,06,24,16,04,17.90
2016,06,24,16,05,17.90
2016,06,24,16,06,17.90
2016,06,24,16,07,17.90
2016,06,24,16,08,17.90
2016,06,24,16,09,17.90
2016,06,24,16,10,17.80
2016,06,24,16,11,17.80
2016,06,24,16,12,17.80
2016,06,24,16,13,17.90
2016,06,24,16,14,17.90
2016,06,24,16,15,17.90
2016,06,24,16,16,18.00
2016,06,24,16,17,18.10
2016,06,24,16,18,18.10
2016,06,24,16,19,18.10
2016,06,24,16,20,18.10
2016,06,24,16,21,18.10
2016,06,24,16,22,18.20
2016,06,24,16,23,18.20
2016,06,24,16,24,18.20
2016,06,24,16,25,18.30
2016,06,24,16,26,18.30
2016,06,24,16,27,18.30
2016,06,24,16,28,18.40
2016,06,24,16,29,18.40
2016,06,24,16,30,18.50
2016,06,24,16,31,18.50
2016,06,24,16,32,18.60
2016,06,24,16,33,18.60
2016,06,24,16,34,18.60
2016,06,24,16,35,18.60
2016,06,24,16,36,18.60
2016,06,24,16,37,18.60
2016,06,24,16,38,18.60
2016,06,24,16,39,18.60
2016,06,24,16,40,18.60
2016,06,24,16,41,18.60
2016,06,24,16,42,18.60
2016,06,24,16,43,18.60
2016,06,24,16,44,18.60
2016,06,24,16,45,18.60
2016,06,24,16,46,18.60
2016,06,24,16,47,18.60
2016,06,24,16,48,18.60
2016,06,24,16,49,18.50
2016,06,24,16,50,18.50
2016,06,24,16,51,18.40
2016,06,24,16,52,18.40
2016,06,24,16,53,18.40
2016,06,24,16,54,18.40
2016,06,24,16,55,18.40
2016,06,24,16,56,18.40
2016,06,24,16,57,18.40
2016,06,24,16,58,18.40
2016,06,24,16,59,18.50
2016,06,24,17,00,18.50
2016,06,24,17,01,18.50
2016,06,24,17,02,18.50
2016,06,24,17,03,18.50
2016,06,24,17,04,18.50
2016,06,24,17,05,18.50
2016,06,24,17,06,18.50
2016,06,24,17,07,18.50
2016,06,24,17,08,18.50
2016,06,24,17,09,18.40
2016,06,24,17,10,18.40
2016,06,24,17,11,18.30
2016,06,24,17,12,18.30
2016,06,24,17,13,18.30
2016,06,24,17,14,18.30
2016,06,24,17,15,18.30
2016,06,24,17,16,18.30
2016,06,24,17,17,18.30
2016,06,24,17,18,18.30
2016,06,24,17,19,18.30